H1 CPF 2 NER 2026 3 16 9 075 01 glonass138 H2 1805301 9138 43508 2026 3 16 0 0 0 2026 3 19 23 45 0 900 1 1 0 0 0 1 H9 10 0 61115 0.00000 0 -5974086.294 17590297.495 -17453826.526 10 0 61115 900.00000 0 -6193940.408 15316603.258 -19410401.589 10 0 61115 1800.00000 0 -6631052.573 12853477.790 -20989178.723 10 0 61115 2700.00000 0 -7299295.113 10267811.001 -22159450.646 10 0 61115 3600.00000 0 -8200055.497 7629358.084 -22898477.882 10 0 61115 4500.00000 0 -9322019.369 5008018.935 -23191929.902 10 0 61115 5400.00000 0 -10641504.173 2471124.124 -23034160.729 10 0 61115 6300.00000 0 -12123329.711 80840.467 -22428313.999 10 0 61115 7200.00000 0 -13722189.209 -2108196.000 -21386255.919 10 0 61115 8100.00000 0 -15384463.406 -4050921.711 -19928337.825 10 0 61115 9000.00000 0 -17050401.491 -5713477.861 -18082993.386 10 0 61115 9900.00000 0 -18656577.238 -7074366.522 -15886178.639 10 0 61115 10800.00000 0 -20138517.199 -8125083.990 -13380666.103 10 0 61115 11700.00000 0 -21433390.525 -8870206.743 -10615206.988 10 0 61115 12600.00000 0 -22482647.424 -9326928.394 -7643578.140 10 0 61115 13500.00000 0 -23234495.517 -9524069.106 -4523532.589 10 0 61115 14400.00000 0 -23646110.151 -9500601.031 -1315674.409 10 0 61115 15300.00000 0 -23685486.050 -9303753.564 1917719.848 10 0 61115 16200.00000 0 -23332852.806 -8986779.693 5113910.010 10 0 61115 17100.00000 0 -22581595.118 -8606478.788 8210907.788 10 0 61115 18000.00000 0 -21438639.492 -8220581.065 11148675.252 10 0 61115 18900.00000 0 -19924291.487 -7885104.501 13870283.241 10 0 61115 19800.00000 0 -18071530.450 -7651795.753 16323007.639 10 0 61115 20700.00000 0 -15924791.219 -7565762.839 18459342.844 10 0 61115 21600.00000 0 -13538283.365 -7663398.994 20237913.604 10 0 61115 22500.00000 0 -10973917.510 -7970684.796 21624268.492 10 0 61115 23400.00000 0 -8298924.200 -8501939.751 22591540.548 10 0 61115 24300.00000 0 -5583263.300 -9259075.825 23120963.171 10 0 61115 25200.00000 0 -2896930.192 -10231384.586 23202231.940 10 0 61115 26100.00000 0 -307269.244 -11395867.601 22833705.731 10 0 61115 27000.00000 0 2123595.374 -12718097.290 22022443.281 10 0 61115 27900.00000 0 4341106.254 -14153573.517 20784074.138 10 0 61115 28800.00000 0 6300300.356 -15649520.592 19142505.839 10 0 61115 29700.00000 0 7967434.330 -17147050.955 17129471.983 10 0 61115 30600.00000 0 9321140.586 -18583606.257 14783928.809 10 0 61115 31500.00000 0 10353066.311 -19895574.605 12151310.765 10 0 61115 32400.00000 0 11067969.024 -21020974.845 9282658.360 10 0 61115 33300.00000 0 11483264.792 -21902095.389 6233634.242 10 0 61115 34200.00000 0 11628048.156 -22487976.378 3063446.018 10 0 61115 35100.00000 0 11541625.173 -22736630.028 -166303.594 10 0 61115 36000.00000 0 11271621.646 -22616904.562 -3392816.834 10 0 61115 36900.00000 0 10871746.864 -22109911.828 -6553327.381 10 0 61115 37800.00000 0 10399308.030 -21209956.976 -9586328.675 10 0 61115 38700.00000 0 9912581.362 -19924929.504 -12432779.269 10 0 61115 39600.00000 0 9468152.150 -18276137.887 -15037260.732 10 0 61115 40500.00000 0 9118337.456 -16297593.596 -17349064.623 10 0 61115 41400.00000 0 8908801.616 -14034773.710 -19323186.589 10 0 61115 42300.00000 0 8876466.465 -11542913.519 -20921207.602 10 0 61115 43200.00000 0 9047805.519 -8884900.322 -22112044.850 10 0 61115 44100.00000 0 9437594.896 -6128856.400 -22872557.565 10 0 61115 45000.00000 0 10048174.199 -3345512.162 -23187996.100 10 0 61115 45900.00000 0 10869248.876 -605479.049 -23052285.794 10 0 61115 46800.00000 0 11878242.523 2023464.251 -22468140.497 10 0 61115 47700.00000 0 13041184.300 4478959.449 -21447003.962 10 0 61115 48600.00000 0 14314093.986 6706422.951 -20008820.672 10 0 61115 49500.00000 0 15644806.228 8661069.556 -18181640.977 10 0 61115 50400.00000 0 16975157.018 10309522.306 -16001068.565 10 0 61115 51300.00000 0 18243440.144 11630942.769 -13509561.371 10 0 61115 52200.00000 0 19387030.113 12617636.236 -10755599.822 10 0 61115 53100.00000 0 20345060.923 13275108.365 -7792738.955 10 0 61115 54000.00000 0 21061047.918 13621572.895 -4678563.160 10 0 61115 54900.00000 0 21485342.291 13686933.048 -1473564.229 10 0 61115 55800.00000 0 21577315.014 13511281.279 1760035.154 10 0 61115 56700.00000 0 21307178.435 13142982.140 4959489.318 10 0 61115 57600.00000 0 20657369.082 12636420.324 8062745.307 10 0 61115 58500.00000 0 19623433.783 12049509.765 11009642.715 10 0 61115 59400.00000 0 18214381.972 11441069.349 13743074.552 10 0 61115 60300.00000 0 16452489.452 10868176.081 16210087.031 10 0 61115 61200.00000 0 14372561.647 10383607.069 18362897.535 10 0 61115 62100.00000 0 12020686.729 10033477.712 20159811.832 10 0 61115 63000.00000 0 9452529.986 9855174.959 21566023.682 10 0 61115 63900.00000 0 6731239.543 9875672.049 22554282.277 10 0 61115 64800.00000 0 3925049.391 10110295.174 23105415.444 10 0 61115 65700.00000 0 1104677.874 10561993.703 23208699.177 10 0 61115 66600.00000 0 -1659371.818 11221144.803 22862066.708 10 0 61115 67500.00000 0 -4299498.713 12065901.180 22072153.159 10 0 61115 68400.00000 0 -6753568.651 13063068.274 20854174.571 10 0 61115 69300.00000 0 -8967251.222 14169475.238 19231642.996 10 0 61115 70200.00000 0 -10896033.029 15333783.525 17235922.207 10 0 61115 71100.00000 0 -12506824.322 16498658.438 14905631.476 10 0 61115 72000.00000 0 -13779092.527 17603213.587 12285907.755 10 0 61115 72900.00000 0 -14705475.652 18585626.320 9427539.445 10 0 61115 73800.00000 0 -15291849.995 19385814.523 6385987.519 10 0 61115 74700.00000 0 -15556849.318 19948062.004 3220312.441 10 0 61115 75600.00000 0 -15530855.736 20223481.275 -7972.656 10 0 61115 76500.00000 0 -15254504.912 20172208.923 -3236100.137 10 0 61115 77400.00000 0 -14776768.867 19765239.613 -6401273.639 10 0 61115 78300.00000 0 -14152697.843 18985819.840 -9441896.865 10 0 61115 79200.00000 0 -13440917.327 17830340.990 -12298780.624 10 0 61115 80100.00000 0 -12700986.913 16308692.506 -14916303.584 10 0 61115 81000.00000 0 -11990733.674 14444058.849 -17243503.201 10 0 61115 81900.00000 0 -11363673.754 12272167.550 -19235074.829 10 0 61115 82800.00000 0 -10866632.114 9840019.056 -20852258.884 10 0 61115 83700.00000 0 -10537661.754 7204150.902 -22063598.497 10 0 61115 84600.00000 0 -10404350.851 4428508.459 -22845552.746 10 0 61115 85500.00000 0 -10482589.604 1582011.012 -23182953.648 10 0 61116 0.00000 0 -10775848.854 -1264085.156 -23069298.325 10 0 61116 900.00000 0 -11275001.006 -4038918.422 -22506870.870 10 0 61116 1800.00000 0 -11958690.068 -6674730.829 -21506692.222 10 0 61116 2700.00000 0 -12794235.370 -9109447.118 -20088299.277 10 0 61116 3600.00000 0 -13739030.075 -11289013.183 -18279357.951 10 0 61116 4500.00000 0 -14742375.200 -13169398.936 -16115118.128 10 0 61116 5400.00000 0 -15747671.374 -14718182.969 -13637721.424 10 0 61116 6300.00000 0 -16694875.541 -15915654.312 -10895375.533 10 0 61116 7200.00000 0 -17523118.690 -16755386.853 -7941411.570 10 0 61116 8100.00000 0 -18173373.940 -17244264.195 -4833243.075 10 0 61116 9000.00000 0 -18591062.339 -17401955.781 -1631247.242 10 0 61116 9900.00000 0 -18728486.381 -17259868.091 1602409.487 10 0 61116 10800.00000 0 -18546988.691 -16859616.705 4804978.401 10 0 61116 11700.00000 0 -18018744.977 -16251084.944 7914344.417 10 0 61116 12600.00000 0 -17128115.854 -15490151.941 10870227.249 10 0 61116 13500.00000 0 -15872500.727 -14636186.555 13615344.697 10 0 61116 14400.00000 0 -14262657.803 -13749412.991 16096515.890 10 0 61116 15300.00000 0 -12322476.564 -12888258.969 18265683.669 10 0 61116 16200.00000 0 -10088211.770 -12106797.690 20080837.096 10 0 61116 17100.00000 0 -7607210.226 -11452390.497 21506817.134 10 0 61116 18000.00000 0 -4936182.408 -10963628.626 22515990.819 10 0 61116 18900.00000 0 -2139089.631 -10668659.740 23088781.750 10 0 61116 19800.00000 0 715266.909 -10583968.935 23214047.299 10 0 61116 20700.00000 0 3555856.688 -10713665.048 22889295.660 10 0 61116 21600.00000 0 6312123.312 -11049302.237 22120738.599 10 0 61116 22500.00000 0 8916670.323 -11570244.668 20923178.570 10 0 61116 23400.00000 0 11307819.240 -12244559.714 19319731.743 10 0 61116 24300.00000 0 13431934.776 -13030403.090 17341391.340 10 0 61116 25200.00000 0 15245421.425 -13877838.780 15026438.597 10 0 61116 26100.00000 0 16716308.759 -14731018.249 12419711.547 10 0 61116 27000.00000 0 17825359.597 -15530628.059 9571744.665 10 0 61116 27900.00000 0 18566654.768 -16216503.294 6537795.067 10 0 61116 28800.00000 0 18947629.834 -16730296.715 3376773.530 10 0 61116 29700.00000 0 18988562.144 -17018090.653 150100.776 10 0 61116 30600.00000 0 18721529.704 -17032840.582 -3079488.725 10 0 61116 31500.00000 0 18188885.790 -16736545.936 -6249171.704 10 0 61116 32400.00000 0 17441313.885 -16102055.029 -9297265.291 10 0 61116 33300.00000 0 16535545.536 -15114426.165 -12164435.642 10 0 61116 34200.00000 0 15531838.159 -13771785.807 -14794861.480 10 0 61116 35100.00000 0 14491320.153 -12085645.975 -17137328.941 10 0 61116 36000.00000 0 13473316.295 -10080666.018 -19146235.629 10 0 61116 36900.00000 0 12532767.191 -7793867.550 -20782483.676 10 0 61116 37800.00000 0 11717852.367 -5273334.509 -22014244.083 10 0 61116 38700.00000 0 11067917.761 -2576452.051 -22817577.323 10 0 61116 39600.00000 0 10611795.209 232242.525 -23176898.220 10 0 61116 40500.00000 0 10366584.727 3083507.419 -23085276.319 10 0 61116 41400.00000 0 10336950.555 5906040.697 -22544566.262 10 0 61116 42300.00000 0 10514960.135 8629211.393 -21565366.059 10 0 61116 43200.00000 0 10880472.073 11185763.894 -20166804.479 10 0 61116 44100.00000 0 11402055.990 13514383.444 -18376162.099 10 0 61116 45000.00000 0 12038404.648 15562016.479 -16228333.738 10 0 61116 45900.00000 0 12740178.022 17285849.966 -13765143.089 10 0 61116 46800.00000 0 13452200.793 18654868.261 -11034523.174 10 0 61116 47700.00000 0 14115919.873 19650923.787 -8089578.927 10 0 61116 48600.00000 0 14672017.735 20269278.277 -4987550.485 10 0 61116 49500.00000 0 15063070.791 20518593.609 -1788697.659 10 0 61116 50400.00000 0 15236140.338 20420374.281 1444872.315 10 0 61116 51300.00000 0 15145186.568 20007886.616 4650410.725 10 0 61116 52200.00000 0 14753203.725 19324601.565 7765743.400 10 0 61116 53100.00000 0 14033986.418 18422227.815 10730473.137 10 0 61116 54000.00000 0 12973452.662 17358418.776 13487145.344 10 0 61116 54900.00000 0 11570467.909 16194250.369 15982354.702 10 0 61116 55800.00000 0 9837135.223 14991575.731 18167771.940 10 0 61116 56700.00000 0 7798538.937 13810367.702 20001071.613 10 0 61116 57600.00000 0 5491951.772 12706160.083 21446743.835 10 0 61116 58500.00000 0 2965537.515 11727694.229 22476775.153 10 0 61116 59400.00000 0 276601.992 10914868.768 23071186.271 10 0 61116 60300.00000 0 -2510536.393 10297077.511 23218416.906 10 0 61116 61200.00000 0 -5326969.749 9892004.493 22915550.748 10 0 61116 62100.00000 0 -8101818.524 9704926.171 22168376.261 10 0 61116 63000.00000 0 -10764937.103 9728549.880 20991281.853 10 0 61116 63900.00000 0 -13249596.377 9943395.494 19406986.828 10 0 61116 64800.00000 0 -15495033.104 10318704.764 17446112.366 10 0 61116 65700.00000 0 -17448761.045 10813840.802 15146599.720 10 0 61116 66600.00000 0 -19068548.216 11380119.618 12552985.678 10 0 61116 67500.00000 0 -20323978.038 11962997.312 9715548.195 10 0 61116 68400.00000 0 -21197529.182 12504521.243 6689337.738 10 0 61116 69300.00000 0 -21685128.624 12945941.925 3533112.524 10 0 61116 70200.00000 0 -21796154.415 13230375.153 308197.949 10 0 61116 71100.00000 0 -21552887.774 13305401.221 -2922707.584 10 0 61116 72000.00000 0 -20989437.313 13125490.281 -6096756.774 10 0 61116 72900.00000 0 -20150180.761 12654149.958 -9152182.986 10 0 61116 73800.00000 0 -19087790.080 11865702.784 -12029510.446 10 0 61116 74700.00000 0 -17860923.735 10746616.646 -14672720.512 10 0 61116 75600.00000 0 -16531684.100 9296330.361 -17030350.368 10 0 61116 76500.00000 0 -15162947.951 7527537.923 -19056501.965 10 0 61116 77400.00000 0 -13815683.368 5465918.004 -20711740.915 10 0 61116 78300.00000 0 -12546366.722 3149318.838 -21963867.476 10 0 61116 79200.00000 0 -11404609.005 626431.697 -22788544.500 10 0 61116 80100.00000 0 -10431091.605 -2044992.239 -23169770.179 10 0 61116 81000.00000 0 -9655898.291 -4800307.578 -23100186.655 10 0 61116 81900.00000 0 -9097313.142 -7570432.962 -22581218.827 10 0 61116 82800.00000 0 -8761134.328 -10284499.575 -21623041.088 10 0 61116 83700.00000 0 -8640531.669 -12872579.783 -20244373.029 10 0 61116 84600.00000 0 -8716452.892 -15268382.537 -18472108.494 10 0 61116 85500.00000 0 -8958560.335 -17411803.602 -16340785.565 10 0 61117 0.00000 0 -9326657.394 -19251224.731 -13891908.348 10 0 61117 900.00000 0 -9772543.673 -20745467.585 -11173132.711 10 0 61117 1800.00000 0 -10242219.037 -21865319.388 -8237335.497 10 0 61117 2700.00000 0 -10678343.299 -22594571.021 -5141581.290 10 0 61117 3600.00000 0 -11022846.506 -22930522.928 -1946010.378 10 0 61117 4500.00000 0 -11219579.190 -22883940.158 1287331.349 10 0 61117 5400.00000 0 -11216890.267 -22478459.734 4495697.324 10 0 61117 6300.00000 0 -10970023.523 -21749476.623 7616856.459 10 0 61117 7200.00000 0 -10443231.436 -20742556.317 10590296.833 10 0 61117 8100.00000 0 -9611517.161 -19511441.658 13358393.684 10 0 61117 9000.00000 0 -8461931.229 -18115738.193 15867519.456 10 0 61117 9900.00000 0 -6994368.227 -16618375.454 18069074.910 10 0 61117 10800.00000 0 -5221829.610 -15082950.489 19920422.113 10 0 61117 11700.00000 0 -3170140.963 -13571064.479 21385702.162 10 0 61117 12600.00000 0 -877134.572 -12139763.193 22436522.706 10 0 61117 13500.00000 0 1608669.823 -10839187.450 23052502.868 10 0 61117 14400.00000 0 4229832.681 -9710530.803 23221665.726 10 0 61117 15300.00000 0 6922138.842 -8784388.906 22940671.175 10 0 61117 16200.00000 0 9617030.913 -8079568.748 22214884.782 10 0 61117 17100.00000 0 12244232.560 -7602407.002 21058281.019 10 0 61117 18000.00000 0 14734454.334 -7346625.760 19493182.132 10 0 61117 18900.00000 0 17022070.953 -7293731.697 17549836.765 10 0 61117 19800.00000 0 19047659.752 -7413942.191 15265845.367 10 0 61117 20700.00000 0 20760295.219 -7667599.900 12685442.310 10 0 61117 21600.00000 0 22119504.198 -8007016.759 9858647.468 10 0 61117 22500.00000 0 23096800.037 -8378670.074 6840302.712 10 0 61117 23400.00000 0 23676731.091 -8725658.222 3689011.352 10 0 61117 24300.00000 0 23857399.174 -8990312.106 466000.769 10 0 61117 25200.00000 0 23650425.627 -9116851.462 -2766069.665 10 0 61117 26100.00000 0 23080365.962 -9053972.757 -5944331.755 10 0 61117 27000.00000 0 22183597.424 -8757257.978 -9006938.299 10 0 61117 27900.00000 0 21006726.220 -8191300.887 -11894274.749 10 0 61117 28800.00000 0 19604581.707 -7331459.176 -14550128.124 10 0 61117 29700.00000 0 18037882.406 -6165156.751 -16922789.497 10 0 61117 30600.00000 0 16370672.714 -4692679.456 -18966067.779 10 0 61117 31500.00000 0 14667638.822 -2927429.165 -20640194.405 10 0 61117 32400.00000 0 12991417.380 -895624.118 -21912600.939 10 0 61117 33300.00000 0 11400010.465 1364543.049 -22758554.327 10 0 61117 34200.00000 0 9944415.728 3804255.212 -23161637.471 10 0 61117 35100.00000 0 8666571.142 6365872.762 -23114066.038 10 0 61117 36000.00000 0 7597700.231 8985112.898 -22616835.690 10 0 61117 36900.00000 0 6757126.523 11593515.503 -21679697.249 10 0 61117 37800.00000 0 6151605.971 14121092.981 -20320960.734 10 0 61117 38700.00000 0 5775204.132 16499053.765 -18567132.422 10 0 61117 39600.00000 0 5609721.839 18662486.130 -16452392.397 10 0 61117 40500.00000 0 5625649.973 20552890.705 -14017923.056 10 0 61117 41400.00000 0 5783611.637 22120456.463 -11311101.951 10 0 61117 42300.00000 0 6036229.559 23325985.769 -8384575.028 10 0 61117 43200.00000 0 6330338.676 24142388.829 -5295228.622 10 0 61117 44100.00000 0 6609449.438 24555686.056 -2103080.549 10 0 61117 45000.00000 0 6816356.939 24565477.499 1129887.752 10 0 61117 45900.00000 0 6895785.046 24184860.925 4340935.042 10 0 61117 46800.00000 0 6796953.388 23439803.207 7467776.486 10 0 61117 47700.00000 0 6475958.632 22367992.535 10449788.511 10 0 61117 48600.00000 0 5897869.407 21017220.531 13229179.093 10 0 61117 49500.00000 0 5038446.510 19443362.750 15752101.135 10 0 61117 50400.00000 0 3885415.848 17708042.558 17969687.890 10 0 61117 51300.00000 0 2439240.337 15876076.122 19838991.144 10 0 61117 52200.00000 0 713357.825 14012805.047 21323804.901 10 0 61117 53100.00000 0 -1266125.692 12181427.397 22395359.544 10 0 61117 54000.00000 0 -3461275.874 10440437.658 23032873.911 10 0 61117 54900.00000 0 -5823669.235 8841281.353 23223955.356 10 0 61117 55800.00000 0 -8296177.551 7426321.070 22964840.469 10 0 61117 56700.00000 0 -10815125.004 6227197.721 22260471.929 10 0 61117 57600.00000 0 -13312730.150 5263654.525 21124409.770 10 0 61117 58500.00000 0 -15719732.843 4542872.228 19578578.141 10 0 61117 59400.00000 0 -17968098.343 4059342.976 17652851.588 10 0 61117 60300.00000 0 -19993687.209 3795288.000 15384487.712 10 0 61117 61200.00000 0 -21738780.466 3721601.678 12817415.999 10 0 61117 62100.00000 0 -23154355.036 3799282.511 10001395.459 10 0 61117 63000.00000 0 -24202014.290 3981290.984 6991056.355 10 0 61117 63900.00000 0 -24855492.490 4214756.069 3844843.965 10 0 61117 64800.00000 0 -25101669.431 4443437.094 623884.486 10 0 61117 65700.00000 0 -24941051.903 4610336.496 -2609204.879 10 0 61117 66600.00000 0 -24387700.983 4660352.196 -5791538.114 10 0 61117 67500.00000 0 -23468607.579 4542856.252 -8861190.432 10 0 61117 68400.00000 0 -22222542.063 4214089.264 -11758411.364 10 0 61117 69300.00000 0 -20698426.243 3639267.686 -14426796.279 10 0 61117 70200.00000 0 -18953296.309 2794313.279 -16814392.595 10 0 61117 71100.00000 0 -17049942.708 1667129.987 -18874718.325 10 0 61117 72000.00000 0 -15054326.647 258372.719 -20567672.479 10 0 61117 72900.00000 0 -13032882.254 -1418325.719 -21860319.217 10 0 61117 73800.00000 0 -11049817.994 -3336680.407 -22727530.354 10 0 61117 74700.00000 0 -9164530.828 -5458620.088 -23152473.744 10 0 61117 75600.00000 0 -7429241.443 -7735657.464 -23126938.300 10 0 61117 76500.00000 0 -5886949.296 -10110707.232 -22651489.658 10 0 61117 77400.00000 0 -4569792.480 -12520276.170 -21735453.837 10 0 61117 78300.00000 0 -3497880.122 -14896934.069 -20396729.648 10 0 61117 79200.00000 0 -2678644.916 -17171962.435 -18661433.844 10 0 61117 80100.00000 0 -2106741.468 -19278070.514 -16563386.299 10 0 61117 81000.00000 0 -1764493.006 -21152065.330 -14143445.549 10 0 61117 81900.00000 0 -1622865.926 -22737364.477 -11448707.924 10 0 61117 82800.00000 0 -1642929.466 -23986246.909 -8531586.203 10 0 61117 83700.00000 0 -1777737.389 -24861748.126 -5448786.053 10 0 61117 84600.00000 0 -1974550.906 -25339121.094 -2260200.499 10 0 61117 85500.00000 0 -2177307.811 -25406802.486 972255.673 10 0 61118 0.00000 0 -2329232.649 -25066844.774 4185848.357 10 0 61118 900.00000 0 -2375477.052 -24334796.751 7318241.527 10 0 61118 1800.00000 0 -2265678.168 -23239039.012 10308701.566 10 0 61118 2700.00000 0 -1956327.223 -21819602.457 13099270.998 10 0 61118 3600.00000 0 -1412848.042 -20126520.304 15635884.905 10 0 61118 4500.00000 0 -611297.974 -18217782.814 17869410.632 10 0 61118 5400.00000 0 460380.472 -16156980.313 19756591.131 10 0 61118 6300.00000 0 1801610.167 -14010732.600 21260874.579 10 0 61118 7200.00000 0 3398964.072 -11846011.386 22353115.122 10 0 61118 8100.00000 0 5226493.999 -9727466.468 23012132.110 10 0 61118 9000.00000 0 7246590.892 -7714865.858 23225117.714 10 0 61118 9900.00000 0 9411342.179 -5860755.325 22987885.504 10 0 61118 10800.00000 0 11664331.294 -4208433.532 22304955.326 10 0 61118 11700.00000 0 13942806.195 -2790326.062 21189472.593 10 0 61118 12600.00000 0 16180128.263 -1626825.197 19662962.968 10 0 61118 13500.00000 0 18308401.176 -725643.192 17754926.283 10 0 61118 14400.00000 0 20261171.465 -81705.675 15502276.445 10 0 61118 15300.00000 0 21976088.975 322410.570 12948636.962 10 0 61118 16200.00000 0 23397416.576 515513.841 10143504.596 10 0 61118 17100.00000 0 24478284.180 536348.260 7141296.318 10 0 61118 18000.00000 0 25182592.240 431720.062 4000297.368 10 0 61118 18900.00000 0 25486484.192 254278.587 781530.460 10 0 61118 19800.00000 0 25379325.078 60046.114 -2452431.933 10 0 61118 20700.00000 0 24864144.220 -94198.386 -5638688.715 10 0 61118 21600.00000 0 23957522.349 -153569.933 -8715240.346 10 0 61118 22500.00000 0 22688927.175 -67649.251 -11622203.259 10 0 61118 23400.00000 0 21099524.789 207134.740 -14302983.912 10 0 61118 24300.00000 0 19240516.594 705413.994 -16705388.653 10 0 61118 25200.00000 0 17171071.681 1451171.906 -18782647.005 10 0 61118 26100.00000 0 14955941.634 2456489.127 -20494327.750 10 0 61118 27000.00000 0 12662858.207 3720798.889 -21807129.634 10 0 61118 27900.00000 0 10359823.219 5230684.455 -22695531.079 10 0 61118 28800.00000 0 8112404.449 6960228.240 -23142286.357 10 0 61118 29700.00000 0 5981150.701 8871898.724 -23138758.762 10 0 61118 30600.00000 0 4019233.911 10917938.602 -22685084.658 10 0 61118 31500.00000 0 2270416.342 13042196.375 -21790165.582 10 0 61118 32400.00000 0 767426.969 15182324.973 -20471488.993 10 0 61118 33300.00000 0 -469186.284 17272255.561 -18754781.489 10 0 61118 34200.00000 0 -1431681.885 19244843.087 -16673501.625 10 0 61118 35100.00000 0 -2125203.155 21034572.929 -14268182.512 10 0 61118 36000.00000 0 -2567308.456 22580215.477 -11585637.263 10 0 61118 36900.00000 0 -2786974.712 23827317.612 -8678043.126 10 0 61118 37800.00000 0 -2823118.060 24730427.014 -5601922.421 10 0 61118 38700.00000 0 -2722695.667 25254956.439 -2417040.463 10 0 61118 39600.00000 0 -2538470.222 25378610.314 814757.708 10 0 61118 40500.00000 0 -2326532.677 25092314.479 4030748.849 10 0 61118 41400.00000 0 -2143688.725 24400610.760 7168547.752 10 0 61118 42300.00000 0 -2044819.995 23321500.554 10167314.420 10 0 61118 43200.00000 0 -2080331.682 21885744.635 12968928.867 10 0 61118 44100.00000 0 -2293794.421 20135648.978 15519111.116 10 0 61118 45000.00000 0 -2719879.802 18123387.686 17768465.144 10 0 61118 45900.00000 0 -3382676.408 15908933.080 19673427.367 10 0 61118 46800.00000 0 -4294457.286 13557679.010 21197102.165 10 0 61118 47700.00000 0 -5454950.820 11137855.809 22309969.195 10 0 61118 48600.00000 0 -6851146.153 8717843.632 22990449.731 10 0 61118 49500.00000 0 -8457642.163 6363494.753 23225321.803 10 0 61118 50400.00000 0 -10237526.592 4135574.941 23009976.576 10 0 61118 51300.00000 0 -12143750.060 2087428.939 22348511.206 10 0 61118 52200.00000 0 -14120939.278 262965.877 21253656.104 10 0 61118 53100.00000 0 -16107575.471 -1304952.626 19746537.519 10 0 61118 54000.00000 0 -18038448.725 -2595655.405 17856279.100 10 0 61118 54900.00000 0 -19847287.186 -3601288.715 15619449.064 10 0 61118 55800.00000 0 -21469452.306 -4326901.387 13079362.484 10 0 61118 56700.00000 0 -22844587.991 -4789984.857 10285251.038 10 0 61118 57600.00000 0 -23919112.923 -5019487.464 7291315.278 10 0 61118 58500.00000 0 -24648451.192 -5054344.561 4155677.100 10 0 61118 59400.00000 0 -24998906.927 -4941586.495 939252.326 10 0 61118 60300.00000 0 -24949103.118 -4734104.672 -2295434.713 10 0 61118 61200.00000 0 -24490922.951 -4488170.590 -5485471.217 10 0 61118 62100.00000 0 -23629912.819 -4260813.610 -8568786.169 10 0 61118 63000.00000 0 -22385128.921 -4107169.460 -11485366.057 10 0 61118 63900.00000 0 -20788432.976 -4077912.943 -14178431.386 10 0 61118 64800.00000 0 -18883266.012 -4216884.853 -16595550.146 10 0 61118 65700.00000 0 -16722951.339 -4559014.897 -18689665.730 10 0 61118 66600.00000 0 -14368597.838 -5128629.777 -20420018.631 10 0 61118 67500.00000 0 -11886691.537 -5938219.127 -21752943.568 10 0 61118 68400.00000 0 -9346476.451 -6987712.485 -22662526.378 10 0 61118 69300.00000 0 -6817234.471 -8264298.663 -23131107.915 10 0 61118 70200.00000 0 -4365577.987 -9742795.847 -23149625.388 10 0 61118 71100.00000 0 -2052868.143 -11386557.423 -22717784.830 10 0 61118 72000.00000 0 67133.866 -13148875.837 -21844061.713 10 0 61118 72900.00000 0 1950285.196 -14974825.809 -20545530.104 10 0 61118 73800.00000 0 3563666.218 -16803469.698 -18847524.045 10 0 61118 74700.00000 0 4886706.148 -18570332.546 -16783138.090 10 0 61118 75600.00000 0 5911784.019 -20210042.988 -14392577.039 10 0 61118 76500.00000 0 6644281.661 -21659029.277 -11722367.799 10 0 61118 77400.00000 0 7102088.441 -22858157.275 -8824449.055 10 0 61118 78300.00000 0 7314580.526 -23755199.807 -5755156.782 10 0 61118 79200.00000 0 7321119.540 -24307033.888 -2574125.692 10 0 61118 80100.00000 0 7169135.530 -24481473.809 656871.647 10 0 61118 81000.00000 0 6911876.563 -24258663.503 3875125.109 10 0 61118 81900.00000 0 6605921.048 -23631970.175 7018203.183 10 0 61118 82800.00000 0 6308558.598 -22608342.162 10025161.255 10 0 61118 83700.00000 0 6075150.465 -21208116.457 12837718.620 10 0 61118 84600.00000 0 5956581.098 -19464284.287 15401381.751 10 0 61118 85500.00000 0 5996908.237 -17421245.609 17666492.488 99